Flag for Mexico Weather past 2 weeks in Mexico City, Federal District, Mexico

Now
41 °F

Passing clouds.


Feels Like: 37 °F
Forecast: 41 / 71 °F
Wind: 6 mph from Northeast

Location: Mexico City / Licenci

Current Time: Jan 31, 2015 at 7:32:00 AM

Latest Report: Jan 31, 2015 at 6:21 AM


Visibility: 6 mi

Pressure: 30.28 "Hg

Humidity: 81%

Dew point: 36 °F

Location of Mexico CityLocation

Historic Weather in Mexico City — Graph

°F

Mexico City temperature yesterday

Maximum temperature yesterday: 70 °F (at 3:28 PM)
Minimum temperature yesterday: 41 °F (at 6:23 AM)
Average temperature yesterday: 52 °F

Past Weeks' High & Low Weather Summary

 TemperatureHumidityPressure
High73 °F (Jan 21, 1:45 PM)87% (Jan 24, 6:47 AM)30.50 "Hg (Jan 24, 6:47 AM)
Low41 °F (Jan 30, 6:23 AM)16% (Jan 29, 3:47 PM)29.67 "Hg (Jan 21, 2:45 PM)
Average58 °F52%30.22 "Hg
* Reported Jan 16 6:21 AM — Jan 31 6:21 AM, Mexico City, Weather by CustomWeather, © 2014

Note: Actual official high and low records may vary slightly from our data, if they occured in-between our weather recording intervals... More about our weather records

Advertising

Mexico City weather history for previous 24 hours

 ConditionsComfort  
Time TempWeatherWind HumidityBarometerVisibility
6:21 AM
Jan 31
41 °FPassing clouds.6 mph81%30.28 "Hg6 mi
3:56 AM45 °FPassing clouds.5 mph76%30.28 "Hg6 mi
1:46 AM46 °FPassing clouds.7 mph71%30.30 "Hg8 mi
11:45 PM
Jan 30
52 °FPassing clouds.6 mph58%29.90 "Hg10 mi
10:48 PM52 °FPassing clouds.7 mph58%30.34 "Hg10 mi
8:47 PM57 °FPassing clouds.12 mph44%29.98 "Hg10 mi
8:14 PM59 °FSleet. Overcast.N/A36%30.28 "HgN/A
7:46 PM61 °FClear.7 mph29%30.27 "Hg10 mi
6:45 PM64 °FPassing clouds.9 mph24%30.23 "Hg10 mi
6:13 PM66 °FSleet. Cloudy.N/A24%30.22 "HgN/A
3:28 PM70 °FSleet. Cloudy.N/A18%30.23 "HgN/A
2:45 PM66 °FPassing clouds.6 mph21%29.87 "Hg10 mi
11:52 AM59 °FPassing clouds.6 mph36%29.99 "Hg7 mi
10:40 AM54 °FPassing clouds.6 mph47%30.41 "Hg7 mi
9:20 AM48 °FPassing clouds.5 mph58%30.42 "Hg8 mi
8:46 AM45 °FPassing clouds.6 mph66%30.10 "Hg8 mi
8:21 AM43 °FPassing clouds.7 mph66%30.41 "Hg8 mi
7:20 AM41 °FSunny.5 mph61%30.39 "Hg10 mi
Weather by CustomWeather, © 2014

See weather overviewHow to use our weather pages